Stündliche Wetter Czyzowice

Heute, 30 Oktober, Freitag

Zeit Temperatur Niederschläge Wind Luftdruck Luftfeuchtigkeit
00:00 +5°C° 0 mm 3 m/S 741 mmHg 84%
01:00 +5°C° 0 mm 3 m/S 741 mmHg 84%
02:00 +5°C° 0 mm 3 m/S 741 mmHg 84%
03:00 +4°C° 0 mm 3 m/S 741 mmHg 84%
04:00 +5°C° 0 mm 2 m/S 741 mmHg 84%
05:00 +6°C° 0 mm 2 m/S 740 mmHg 84%
06:00 +6°C° 0 mm 2 m/S 740 mmHg 84%
07:00 +5°C° 0 mm 3 m/S 740 mmHg 81%
08:00 +7°C° 0.1 mm 3 m/S 740 mmHg 82%
09:00 +7°C° 0.1 mm 3 m/S 740 mmHg 83%
10:00 +8°C° 0.1 mm 3 m/S 740 mmHg 83%
11:00 +8°C° 0.3 mm 3 m/S 740 mmHg 85%
12:00 +8°C° 0.3 mm 3 m/S 739 mmHg 87%
13:00 +8°C° 0.3 mm 3 m/S 739 mmHg 90%
14:00 +8°C° 0.7 mm 2 m/S 739 mmHg 91%
15:00 +9°C° 0.7 mm 2 m/S 739 mmHg 92%
16:00 +9°C° 0.7 mm 2 m/S 738 mmHg 94%
17:00 +9°C° 0.7 mm 3 m/S 738 mmHg 94%
18:00 +10°C° 0.7 mm 3 m/S 738 mmHg 93%
19:00 +11°C° 0.7 mm 4 m/S 739 mmHg 93%
20:00 +11°C° 0.3 mm 4 m/S 739 mmHg 93%
21:00 +11°C° 0.3 mm 4 m/S 739 mmHg 93%
22:00 +11°C° 0.3 mm 4 m/S 739 mmHg 93%
23:00 +11°C° 0.6 mm 4 m/S 739 mmHg 93%

Morgen, 31 Oktober, Samstag

Zeit Temperatur Niederschläge Wind Luftdruck Luftfeuchtigkeit
00:00 +11°C° 0.6 mm 4 m/S 739 mmHg 93%
01:00 +11°C° 0.6 mm 4 m/S 740 mmHg 93%
02:00 +11°C° 0.5 mm 4 m/S 740 mmHg 93%
03:00 +11°C° 0.5 mm 4 m/S 740 mmHg 94%
04:00 +12°C° 0.5 mm 4 m/S 740 mmHg 94%
05:00 +11°C° 0.7 mm 4 m/S 741 mmHg 95%
06:00 +11°C° 0.7 mm 3 m/S 741 mmHg 96%
07:00 +11°C° 0.7 mm 3 m/S 742 mmHg 96%
08:00 +12°C° 0.2 mm 2 m/S 742 mmHg 96%
09:00 +12°C° 0.2 mm 2 m/S 742 mmHg 95%
10:00 +12°C° 0.2 mm 1 m/S 742 mmHg 95%
11:00 +12°C° 0.1 mm 1 m/S 742 mmHg 93%
12:00 +12°C° 0.1 mm 1 m/S 743 mmHg 92%
13:00 +12°C° 0.1 mm 1 m/S 743 mmHg 90%
14:00 +12°C° 0 mm 1 m/S 743 mmHg 91%
15:00 +12°C° 0 mm 1 m/S 742 mmHg 92%
16:00 +11°C° 0 mm 1 m/S 742 mmHg 92%
17:00 +11°C° 0 mm 1 m/S 742 mmHg 93%
18:00 +10°C° 0 mm 1 m/S 743 mmHg 93%
19:00 +9°C° 0 mm 1 m/S 743 mmHg 94%
20:00 +9°C° 0 mm 1 m/S 743 mmHg 94%
21:00 +9°C° 0 mm 1 m/S 743 mmHg 93%
22:00 +8°C° 0 mm 2 m/S 742 mmHg 93%
23:00 +8°C° 0 mm 2 m/S 742 mmHg 93%

übermorgen, 1 November, Sonntag

Zeit Temperatur Niederschläge Wind Luftdruck Luftfeuchtigkeit
00:00 +8°C° 0 mm 2 m/S 742 mmHg 92%
01:00 +7°C° 0 mm 2 m/S 742 mmHg 91%
02:00 +7°C° 0 mm 2 m/S 742 mmHg 91%
03:00 +7°C° 0 mm 2 m/S 741 mmHg 91%
04:00 +7°C° 0 mm 2 m/S 741 mmHg 91%
05:00 +7°C° 0 mm 2 m/S 741 mmHg 91%
06:00 +7°C° 0 mm 2 m/S 741 mmHg 91%
07:00 +7°C° 0 mm 3 m/S 741 mmHg 92%
08:00 +9°C° 0 mm 3 m/S 741 mmHg 87%
09:00 +10°C° 0 mm 3 m/S 741 mmHg 83%
10:00 +12°C° 0 mm 3 m/S 741 mmHg 79%
11:00 +13°C° 0 mm 3 m/S 740 mmHg 77%
12:00 +13°C° 0 mm 3 m/S 740 mmHg 76%
13:00 +14°C° 0 mm 3 m/S 739 mmHg 74%
14:00 +13°C° 0 mm 3 m/S 739 mmHg 77%
15:00 +12°C° 0 mm 3 m/S 739 mmHg 81%
16:00 +11°C° 0 mm 3 m/S 738 mmHg 84%
17:00 +11°C° 1 mm 3 m/S 738 mmHg 87%
18:00 +10°C° 1 mm 3 m/S 738 mmHg 90%
19:00 +10°C° 1 mm 3 m/S 738 mmHg 93%
20:00 +10°C° 0.1 mm 3 m/S 738 mmHg 92%
21:00 +10°C° 0.1 mm 3 m/S 738 mmHg 91%
22:00 +11°C° 0.1 mm 3 m/S 738 mmHg 91%
23:00 +11°C° 0.2 mm 3 m/S 737 mmHg 91%

2 November, Montag

Zeit Temperatur Niederschläge Wind Luftdruck Luftfeuchtigkeit
00:00 +11°C° 0.2 mm 3 m/S 737 mmHg 92%
01:00 +11°C° 0.2 mm 3 m/S 737 mmHg 92%
02:00 +11°C° 0.5 mm 3 m/S 737 mmHg 92%
03:00 +11°C° 0.5 mm 3 m/S 737 mmHg 93%
04:00 +12°C° 0.5 mm 3 m/S 737 mmHg 93%
05:00 +13°C° 0 mm 2 m/S 737 mmHg 92%
06:00 +13°C° 0 mm 2 m/S 737 mmHg 92%
07:00 +13°C° 0 mm 2 m/S 738 mmHg 91%
08:00 +14°C° 0 mm 2 m/S 738 mmHg 90%
09:00 +14°C° 0 mm 2 m/S 738 mmHg 89%
10:00 +15°C° 0 mm 2 m/S 738 mmHg 87%
11:00 +15°C° 0.1 mm 2 m/S 738 mmHg 88%
12:00 +15°C° 0.1 mm 2 m/S 738 mmHg 89%
13:00 +15°C° 0.1 mm 2 m/S 738 mmHg 90%
14:00 +14°C° 0 mm 2 m/S 738 mmHg 90%
15:00 +13°C° 0 mm 3 m/S 738 mmHg 90%
16:00 +13°C° 0 mm 3 m/S 738 mmHg 91%
17:00 +13°C° 0 mm 3 m/S 738 mmHg 91%
18:00 +13°C° 0 mm 3 m/S 738 mmHg 91%
19:00 +13°C° 0 mm 3 m/S 738 mmHg 90%
20:00 +13°C° 0 mm 3 m/S 738 mmHg 90%
21:00 +13°C° 0 mm 3 m/S 738 mmHg 91%
22:00 +13°C° 0 mm 3 m/S 738 mmHg 91%
23:00 +13°C° 0 mm 3 m/S 738 mmHg 90%

3 November, Dienstag

Zeit Temperatur Niederschläge Wind Luftdruck Luftfeuchtigkeit
00:00 +13°C° 0 mm 3 m/S 738 mmHg 90%
01:00 +14°C° 0 mm 3 m/S 738 mmHg 90%
02:00 +14°C° 0 mm 3 m/S 738 mmHg 90%
03:00 +14°C° 0 mm 3 m/S 738 mmHg 90%
04:00 +15°C° 0 mm 2 m/S 739 mmHg 90%
05:00 +14°C° 0 mm 2 m/S 739 mmHg 90%
06:00 +14°C° 0 mm 2 m/S 739 mmHg 91%
07:00 +14°C° 0 mm 2 m/S 740 mmHg 92%
08:00 +14°C° 0.1 mm 2 m/S 740 mmHg 91%
09:00 +13°C° 0.1 mm 3 m/S 741 mmHg 91%
10:00 +14°C° 0.1 mm 3 m/S 741 mmHg 91%
11:00 +13°C° 0.1 mm 3 m/S 741 mmHg 90%
12:00 +14°C° 0.1 mm 2 m/S 742 mmHg 88%
13:00 +14°C° 0.1 mm 2 m/S 742 mmHg 86%
14:00 +13°C° 0.1 mm 2 m/S 742 mmHg 85%
15:00 +13°C° 0.1 mm 2 m/S 743 mmHg 84%
16:00 +12°C° 0.1 mm 2 m/S 743 mmHg 83%
17:00 +12°C° 0 mm 2 m/S 743 mmHg 81%
18:00 +10°C° 0 mm 2 m/S 744 mmHg 79%
19:00 +10°C° 0 mm 2 m/S 744 mmHg 78%
20:00 +10°C° 0 mm 2 m/S 744 mmHg 78%
21:00 +9°C° 0 mm 2 m/S 744 mmHg 78%
22:00 +9°C° 0 mm 2 m/S 744 mmHg 78%
23:00 +9°C° 0.2 mm 2 m/S 744 mmHg 79%

4 November, Mittwoch

Zeit Temperatur Niederschläge Wind Luftdruck Luftfeuchtigkeit
00:00 +8°C° 0.2 mm 2 m/S 744 mmHg 80%
01:00 +8°C° 0.2 mm 2 m/S 744 mmHg 82%
02:00 +8°C° 0.7 mm 2 m/S 744 mmHg 84%
03:00 +8°C° 0.7 mm 2 m/S 744 mmHg 87%
04:00 +7°C° 0.7 mm 2 m/S 743 mmHg 89%
05:00 +7°C° 1.8 mm 2 m/S 743 mmHg 91%
06:00 +7°C° 1.8 mm 2 m/S 744 mmHg 93%
07:00 +7°C° 1.8 mm 3 m/S 744 mmHg 95%
08:00 +7°C° 1.5 mm 3 m/S 744 mmHg 95%
09:00 +7°C° 1.5 mm 3 m/S 744 mmHg 95%
10:00 +6°C° 1.5 mm 4 m/S 744 mmHg 95%
11:00 +7°C° 0.6 mm 3 m/S 745 mmHg 94%
12:00 +7°C° 0.6 mm 3 m/S 745 mmHg 93%
13:00 +7°C° 0.6 mm 3 m/S 745 mmHg 93%
14:00 +7°C° 0.2 mm 3 m/S 745 mmHg 93%
15:00 +7°C° 0.2 mm 2 m/S 746 mmHg 92%
16:00 +7°C° 0.2 mm 2 m/S 746 mmHg 92%
17:00 +7°C° 0 mm 2 m/S 746 mmHg 93%
18:00 +7°C° 0 mm 2 m/S 747 mmHg 93%
19:00 +6°C° 0 mm 2 m/S 747 mmHg 93%
20:00 +6°C° 0 mm 2 m/S 747 mmHg 93%
21:00 +6°C° 0 mm 2 m/S 748 mmHg 93%
22:00 +6°C° 0 mm 2 m/S 748 mmHg 93%
23:00 +6°C° 0 mm 2 m/S 748 mmHg 94%
Mehr zeigen

Wir brauchen deine Erlaubnis

Meteoprog und unser Service Anbieter werden persönliche Daten aufbewahren, so wie Cookies, Geräte Bezeichnung oder ähnliche Technologien von deinem Gerät und Prozess, so wie Persönliche Daten Inhalte und Werbungen, genauso wie social Media und den Verkehr zu analysieren.

  • Aufbewahrung und/oder Zugang zu deiner Geräte Informationen.

    Cookies, Geräte Bezeichnung oder andere Informationen, können aufbewahrt oder Zugang zu deinem Gerät erhalten, für den Grund, der oben angegeben wird.

  • Personalisierte Werbung und Inhalte, Messungen, Einblick in das Publikum und Produkt Entwicklung.

    Werbungen und Inhalte können personalisiert werden, basierend auf ein Profil. Mehr Daten können besser personalisierte Werbungen und Inhalte hinzufügen. Werbung und Inhalte können gezeigt und gemessen werden. Einblicke über das Publikum, welche die Werbung gesehen haben und den Inhalt, können abgeleitet werden. So wie Daten können genutzt werden, um es zu verbessern oder die Benutzer Erfahrung zu verbessern das System und die Software.

Wenn du “Ich stimme zu” klickst, erlaubst du uns, die Cookies zu benutzen die Geräte Bezeichnung, den Web oder ähnliche Technologien zu benutzen. Deine Settings, können in deinem Gerät bei deinem Browser geändert werden.

Für den bestimmten Zweck, berechtigten Interessen beruhen darauf, mehr als auf den Inhalt. Du kannst mehr darüber in unseren Privaten und Cookie Politik lesen.